• In Austria
  • List of Countries
  • For 7 days
  • Water Temperature
  • Satellite Maps
  • Weather Map
  • News
  • Weather Widgets
  • user-avatar
    Login

    Hourly Weather Shkoder

    Today, 18 September, Tuesday

    Time Temperature Precipitation Wind Pressure Humidity
    00:00 +19°C° 0 mm 2 mps 743 mmHg 56%
    01:00 +19°C° 0 mm 2 mps 743 mmHg 59%
    02:00 +19°C° 0 mm 2 mps 743 mmHg 60%
    03:00 +19°C° 0 mm 2 mps 743 mmHg 60%
    04:00 +19°C° 0 mm 2 mps 743 mmHg 61%
    05:00 +20°C° 0 mm 2 mps 743 mmHg 60%
    06:00 +21°C° 0 mm 2 mps 743 mmHg 58%
    07:00 +23°C° 0 mm 2 mps 743 mmHg 49%
    08:00 +25°C° 0 mm 2 mps 743 mmHg 44%
    09:00 +27°C° 0 mm 1 mps 743 mmHg 39%
    10:00 +29°C° 0 mm 1 mps 743 mmHg 35%
    11:00 +30°C° 0 mm 1 mps 743 mmHg 33%
    12:00 +30°C° 0 mm 2 mps 743 mmHg 32%
    13:00 +30°C° 0 mm 2 mps 743 mmHg 34%
    14:00 +30°C° 0 mm 2 mps 743 mmHg 35%
    15:00 +29°C° 0 mm 2 mps 743 mmHg 36%
    16:00 +29°C° 0 mm 2 mps 742 mmHg 37%
    17:00 +27°C° 0 mm 2 mps 742 mmHg 43%
    18:00 +24°C° 0 mm 1 mps 742 mmHg 49%
    19:00 +22°C° 0 mm 1 mps 742 mmHg 55%
    20:00 +22°C° 0 mm 1 mps 743 mmHg 56%
    21:00 +21°C° 0 mm 1 mps 743 mmHg 56%
    22:00 +21°C° 0 mm 1 mps 743 mmHg 56%
    23:00 +20°C° 0 mm 2 mps 743 mmHg 57%

    Tomorrow, 19 September, Wednesday

    Time Temperature Precipitation Wind Pressure Humidity
    00:00 +20°C° 0 mm 2 mps 743 mmHg 58%
    01:00 +20°C° 0 mm 2 mps 743 mmHg 59%
    02:00 +19°C° 0 mm 2 mps 743 mmHg 59%
    03:00 +19°C° 0 mm 2 mps 743 mmHg 60%
    04:00 +19°C° 0 mm 2 mps 743 mmHg 61%
    05:00 +20°C° 0 mm 2 mps 743 mmHg 59%
    06:00 +21°C° 0 mm 2 mps 743 mmHg 58%
    07:00 +23°C° 0 mm 2 mps 743 mmHg 56%
    08:00 +25°C° 0 mm 2 mps 743 mmHg 50%
    09:00 +27°C° 0 mm 1 mps 743 mmHg 44%
    10:00 +30°C° 0 mm 1 mps 743 mmHg 38%
    11:00 +30°C° 0 mm 1 mps 743 mmHg 36%
    12:00 +31°C° 0 mm 2 mps 743 mmHg 35%
    13:00 +32°C° 0 mm 2 mps 742 mmHg 33%
    14:00 +31°C° 0 mm 2 mps 742 mmHg 35%
    15:00 +30°C° 0 mm 2 mps 742 mmHg 38%
    16:00 +30°C° 0 mm 2 mps 741 mmHg 40%
    17:00 +28°C° 0 mm 2 mps 742 mmHg 44%
    18:00 +26°C° 0 mm 2 mps 742 mmHg 49%
    19:00 +24°C° 0 mm 1 mps 742 mmHg 54%
    20:00 +23°C° 0 mm 1 mps 742 mmHg 55%
    21:00 +23°C° 0 mm 2 mps 742 mmHg 57%
    22:00 +21°C° 0 mm 2 mps 743 mmHg 58%
    23:00 +21°C° 0 mm 2 mps 742 mmHg 59%

    Day after tomorrow, 20 September, Thursday

    Time Temperature Precipitation Wind Pressure Humidity
    00:00 +21°C° 0 mm 2 mps 742 mmHg 60%
    01:00 +21°C° 0 mm 2 mps 742 mmHg 61%
    02:00 +20°C° 0 mm 2 mps 742 mmHg 62%
    03:00 +20°C° 0 mm 2 mps 742 mmHg 63%
    04:00 +20°C° 0 mm 2 mps 742 mmHg 63%
    05:00 +21°C° 0 mm 2 mps 742 mmHg 61%
    06:00 +23°C° 0 mm 2 mps 742 mmHg 59%
    07:00 +23°C° 0 mm 2 mps 742 mmHg 57%
    08:00 +26°C° 0 mm 2 mps 742 mmHg 50%
    09:00 +28°C° 0 mm 1 mps 742 mmHg 44%
    10:00 +30°C° 0 mm 1 mps 742 mmHg 37%
    11:00 +31°C° 0 mm 2 mps 742 mmHg 36%
    12:00 +31°C° 0 mm 2 mps 742 mmHg 35%
    13:00 +33°C° 0 mm 3 mps 741 mmHg 33%
    14:00 +31°C° 0 mm 3 mps 741 mmHg 36%
    15:00 +30°C° 0 mm 2 mps 741 mmHg 38%
    16:00 +30°C° 0 mm 2 mps 741 mmHg 41%
    17:00 +28°C° 0 mm 2 mps 741 mmHg 45%
    18:00 +26°C° 0 mm 2 mps 741 mmHg 49%
    19:00 +24°C° 0 mm 1 mps 741 mmHg 53%
    20:00 +23°C° 0 mm 2 mps 741 mmHg 52%
    21:00 +21°C° 0 mm 2 mps 741 mmHg 52%
    22:00 +21°C° 0 mm 2 mps 741 mmHg 51%
    23:00 +21°C° 0 mm 2 mps 741 mmHg 50%

    21 September, Friday

    Time Temperature Precipitation Wind Pressure Humidity
    00:00 +20°C° 0 mm 2 mps 741 mmHg 50%
    01:00 +20°C° 0 mm 2 mps 741 mmHg 50%
    02:00 +20°C° 0 mm 2 mps 741 mmHg 50%
    03:00 +20°C° 0 mm 2 mps 741 mmHg 50%
    04:00 +19°C° 0 mm 2 mps 741 mmHg 50%
    05:00 +20°C° 0 mm 2 mps 741 mmHg 49%
    06:00 +21°C° 0 mm 2 mps 741 mmHg 49%
    07:00 +23°C° 0 mm 2 mps 741 mmHg 48%
    08:00 +25°C° 0 mm 2 mps 741 mmHg 43%
    09:00 +28°C° 0 mm 1 mps 741 mmHg 37%
    10:00 +30°C° 0 mm 1 mps 741 mmHg 32%
    11:00 +30°C° 0 mm 2 mps 741 mmHg 32%
    12:00 +31°C° 0 mm 2 mps 741 mmHg 32%
    13:00 +31°C° 0 mm 3 mps 741 mmHg 31%
    14:00 +31°C° 0 mm 2 mps 740 mmHg 34%
    15:00 +30°C° 0 mm 2 mps 740 mmHg 36%
    16:00 +29°C° 0 mm 2 mps 740 mmHg 38%
    17:00 +27°C° 0 mm 1 mps 740 mmHg 45%
    18:00 +24°C° 0 mm 1 mps 740 mmHg 52%
    19:00 +20°C° 0 mm 0 mps 740 mmHg 59%
    20:00 +22°C° 0 mm 1 mps 740 mmHg 60%
    21:00 +21°C° 0 mm 1 mps 741 mmHg 62%
    22:00 +21°C° 0 mm 1 mps 741 mmHg 63%
    23:00 +21°C° 0 mm 1 mps 741 mmHg 63%

    22 September, Saturday

    Time Temperature Precipitation Wind Pressure Humidity
    00:00 +20°C° 0 mm 1 mps 741 mmHg 63%
    01:00 +20°C° 0 mm 1 mps 741 mmHg 64%
    02:00 +19°C° 0 mm 2 mps 741 mmHg 64%
    03:00 +19°C° 0 mm 2 mps 740 mmHg 64%
    04:00 +18°C° 0 mm 2 mps 740 mmHg 64%
    05:00 +19°C° 0 mm 2 mps 741 mmHg 61%
    06:00 +21°C° 0 mm 2 mps 741 mmHg 59%
    07:00 +23°C° 0 mm 1 mps 741 mmHg 56%
    08:00 +25°C° 0 mm 2 mps 741 mmHg 50%
    09:00 +27°C° 0 mm 2 mps 741 mmHg 45%
    10:00 +29°C° 0 mm 2 mps 741 mmHg 40%
    11:00 +29°C° 0 mm 2 mps 741 mmHg 39%
    12:00 +30°C° 0 mm 2 mps 740 mmHg 39%
    13:00 +30°C° 0 mm 3 mps 740 mmHg 39%
    14:00 +30°C° 0 mm 3 mps 740 mmHg 43%
    15:00 +29°C° 0 mm 2 mps 740 mmHg 47%
    16:00 +28°C° 0 mm 2 mps 740 mmHg 51%
    17:00 +26°C° 0.1 mm 2 mps 741 mmHg 61%
    18:00 +24°C° 0.1 mm 1 mps 742 mmHg 70%
    19:00 +22°C° 0.1 mm 1 mps 742 mmHg 80%
    20:00 +21°C° 0 mm 1 mps 742 mmHg 80%
    21:00 +19°C° 0 mm 2 mps 743 mmHg 80%
    22:00 +19°C° 0 mm 2 mps 743 mmHg 79%
    23:00 +18°C° 0 mm 2 mps 743 mmHg 79%

    23 September, Sunday

    Time Temperature Precipitation Wind Pressure Humidity
    00:00 +18°C° 0 mm 2 mps 743 mmHg 78%
    01:00 +17°C° 0 mm 2 mps 742 mmHg 77%
    02:00 +17°C° 0 mm 2 mps 743 mmHg 77%
    03:00 +17°C° 0 mm 2 mps 743 mmHg 76%
    04:00 +17°C° 0 mm 3 mps 743 mmHg 76%
    05:00 +18°C° 0 mm 3 mps 743 mmHg 73%
    06:00 +19°C° 0 mm 3 mps 743 mmHg 69%
    07:00 +19°C° 0 mm 3 mps 743 mmHg 66%
    08:00 +23°C° 0 mm 2 mps 743 mmHg 59%
    09:00 +25°C° 0 mm 2 mps 743 mmHg 53%
    10:00 +27°C° 0 mm 2 mps 743 mmHg 46%
    11:00 +28°C° 0 mm 2 mps 742 mmHg 44%
    12:00 +29°C° 0 mm 2 mps 742 mmHg 43%
    13:00 +30°C° 0 mm 2 mps 742 mmHg 41%
    14:00 +29°C° 0 mm 2 mps 741 mmHg 43%
    15:00 +29°C° 0 mm 2 mps 741 mmHg 45%
    16:00 +28°C° 0 mm 3 mps 740 mmHg 47%
    17:00 +26°C° 0 mm 2 mps 740 mmHg 57%
    18:00 +24°C° 0 mm 1 mps 740 mmHg 66%
    19:00 +22°C° 0 mm 1 mps 740 mmHg 76%
    20:00 +21°C° 0 mm 1 mps 740 mmHg 76%
    21:00 +21°C° 0 mm 1 mps 740 mmHg 77%
    22:00 +21°C° 0 mm 1 mps 740 mmHg 78%
    23:00 +20°C° 0 mm 2 mps 740 mmHg 78%
    Show more